Weather in Medvedok

Russia / Kirov Oblast     57°23′36″N   50°01′24″E
temp.,
°C
wind,
m/s
gust,
m/s
humid.,
%
clouds,
%
prec.,
mm/h
press.,
hPa
HPBL,
m
8 march, mon
mon800:00−9sse51194100 1.2 997702
03:00−8sse51195100 2.4 994686
06:00−8se4995100 0.7 991424
09:00−7ese3695100 1.6 991391
12:00−5sse1393100 0.8 992319
15:00−5wsw61188100 1.6 995681
18:00−8wsw41190100 0.0 997479
21:00−10wsw41093100 0.1 999279
9 march, tue
tue900:00−12wnw2397100 0.0 100059
03:00−14nw239696 0.1 100231
06:00−16nnw239683 0.1 100539
09:00−14n249389 0.1 1007265
12:00−11n2386100 0.1 1009483
15:00−11n3488100 0.2 1010547
18:00−14n3795100 0.1 1011297
21:00−16n4109496 0.1 1012325
10 march, wed
wed1000:00−20n5119577 0.0 1013346
03:00−23n5109587 0.1 1014293
06:00−27n5119381 0.0 1016270
09:00−25nne6119040 0.0 1017346
12:00−20n610860 0.0 1017450
15:00−18n59820 0.0 1017660
18:00−21nnw389116 0.0 1018164
21:00−24nw33968 0.0 101963
11 march, thu
thu1100:00−24nw34970 0.0 101983
03:00−23wnw399619 0.0 1019197
06:00−20wnw3896100 0.0 1018292
09:00−16wnw4893100 0.1 1018358
12:00−10nw5988100 0.3 1017738
15:00−7nw61183100 0.5 1017910
18:00−9nw51482100 0.0 1018677
21:00−11nw5148499 0.0 1020544
12 march, fri
fri1200:00−15nw4109139 0.0 1022252
03:00−17nw4109220 0.0 1024199
06:00−19wnw36910 0.0 1026116
09:00−14wnw47830 0.0 1026260
12:00−9w58820 0.0 1026517
15:00−8w59828 0.0 1025686
18:00−12wsw499048 0.0 1026180
21:00−13wsw4109461 0.0 1026235